Time,TemperatureF,DewpointF,PressureIn,WindDirection,WindDirectionDegrees,WindSpeedMPH,WindSpeedGustMPH,Humidity,HourlyPrecipIn,Conditions,Clouds,dailyrainin,SolarRadiationWatts/m^2,SoftwareType,DateUTC
2013-04-29 00:00:00,53.7,31.8,30.23,ENE,63,0.0,3.0,43,0.00,,---,0.00,0.00,VWS V14.01,2013-04-29 04:00:00,
2013-04-29 00:01:00,53.7,31.8,30.23,ENE,63,0.0,3.0,43,0.00,,---,0.00,0.00,VWS V14.01,2013-04-29 04:01:00,
2013-04-29 00:06:00,53.7,32.3,30.23,SSE,147,0.0,5.0,44,0.00,,---,0.00,0.00,VWS V14.01,2013-04-29 04:06:00,
2013-04-29 00:11:00,53.7,32.3,30.23,SSE,162,1.0,5.0,44,0.00,,---,0.00,0.00,VWS V14.01,2013-04-29 04:11:00,
2013-04-29 00:16:00,53.7,32.3,30.23,West,281,0.0,5.0,44,0.00,,---,0.00,0.00,VWS V14.01,2013-04-29 04:16:00,
2013-04-29 00:21:00,53.6,32.2,30.23,West,281,0.0,5.0,44,0.00,,---,0.00,0.00,VWS V14.01,2013-04-29 04:21:00,
2013-04-29 00:26:00,53.5,32.1,30.23,West,281,0.0,5.0,44,0.00,,---,0.00,0.00,VWS V14.01,2013-04-29 04:26:00,
2013-04-29 00:30:00,53.5,32.7,30.23,West,281,0.0,5.0,45,0.00,,---,0.00,0.00,VWS V14.01,2013-04-29 04:30:00,
2013-04-29 00:31:00,53.5,32.7,30.23,West,281,0.0,0.0,45,0.00,,---,0.00,0.00,VWS V14.01,2013-04-29 04:31:00,
2013-04-29 00:36:00,53.3,32.0,30.23,West,281,1.0,2.0,44,0.00,,---,0.00,0.00,VWS V14.01,2013-04-29 04:36:00,
2013-04-29 00:41:00,53.2,32.4,30.23,West,281,0.0,2.0,45,0.00,,---,0.00,0.00,VWS V14.01,2013-04-29 04:41:00,
2013-04-29 00:46:00,53.1,32.3,30.23,West,281,0.0,2.0,45,0.00,,---,0.00,0.00,VWS V14.01,2013-04-29 04:46:00,
2013-04-29 00:51:00,53.1,32.3,30.23,West,281,0.0,2.0,45,0.00,,---,0.00,0.00,VWS V14.01,2013-04-29 04:51:00,
2013-04-29 00:56:00,53.1,31.8,30.23,WNW,287,0.0,2.0,44,0.00,,---,0.00,0.00,VWS V14.01,2013-04-29 04:56:00,
2013-04-29 01:00:00,53.1,32.3,30.23,WNW,287,0.0,2.0,45,0.00,,---,0.00,0.00,VWS V14.01,2013-04-29 05:00:00,
2013-04-29 01:01:00,53.1,32.3,30.23,WNW,287,0.0,0.0,45,0.00,,---,0.00,0.00,VWS V14.01,2013-04-29 05:01:00,
2013-04-29 01:06:00,53.1,32.3,30.23,WNW,287,0.0,2.0,45,0.00,,---,0.00,0.00,VWS V14.01,2013-04-29 05:06:00,
2013-04-29 01:11:00,53.1,31.8,30.23,WNW,287,0.0,2.0,44,0.00,,---,0.00,0.00,VWS V14.01,2013-04-29 05:11:00,
2013-04-29 01:16:00,53.1,32.3,30.23,WNW,287,0.0,2.0,45,0.00,,---,0.00,0.00,VWS V14.01,2013-04-29 05:16:00,
2013-04-29 01:21:00,53.1,32.3,30.22,West,265,0.0,4.0,45,0.00,,---,0.00,0.00,VWS V14.01,2013-04-29 05:21:00,
2013-04-29 01:26:00,53.0,32.2,30.22,West,265,0.0,4.0,45,0.00,,---,0.00,0.00,VWS V14.01,2013-04-29 05:26:00,
2013-04-29 01:30:00,53.0,32.2,30.22,West,265,0.0,4.0,45,0.00,,---,0.00,0.00,VWS V14.01,2013-04-29 05:30:00,
2013-04-29 01:31:00,53.0,32.2,30.22,West,265,0.0,0.0,45,0.00,,---,0.00,0.00,VWS V14.01,2013-04-29 05:31:00,
2013-04-29 01:36:00,53.0,32.2,30.22,West,265,0.0,2.0,45,0.00,,---,0.00,0.00,VWS V14.01,2013-04-29 05:36:00,
2013-04-29 01:41:00,53.0,32.2,30.22,West,278,0.0,2.0,45,0.00,,---,0.00,0.00,VWS V14.01,2013-04-29 05:41:00,
2013-04-29 01:46:00,52.9,32.2,30.22,West,278,0.0,2.0,45,0.00,,---,0.00,0.00,VWS V14.01,2013-04-29 05:46:00,
2013-04-29 01:51:00,52.9,32.2,30.22,NW,311,0.0,3.0,45,0.00,,---,0.00,0.00,VWS V14.01,2013-04-29 05:51:00,
2013-04-29 01:56:00,52.8,32.1,30.22,NW,311,0.0,3.0,45,0.00,,---,0.00,0.00,VWS V14.01,2013-04-29 05:56:00,
2013-04-29 02:00:00,52.9,32.2,30.22,SE,140,0.0,3.0,45,0.00,,---,0.00,0.00,VWS V14.01,2013-04-29 06:00:00,
2013-04-29 02:01:00,52.9,32.2,30.22,SE,140,0.0,0.0,45,0.00,,---,0.00,0.00,VWS V14.01,2013-04-29 06:01:00,
2013-04-29 02:06:00,52.9,32.7,30.22,South,171,0.0,2.0,46,0.00,,---,0.00,0.00,VWS V14.01,2013-04-29 06:06:00,
2013-04-29 02:11:00,52.9,32.7,30.22,ESE,107,0.0,2.0,46,0.00,,---,0.00,0.00,VWS V14.01,2013-04-29 06:11:00,
2013-04-29 02:16:00,52.8,33.2,30.22,NW,319,0.0,4.0,47,0.00,,---,0.00,0.00,VWS V14.01,2013-04-29 06:16:00,
2013-04-29 02:21:00,52.9,33.2,30.22,NW,319,0.0,4.0,47,0.00,,---,0.00,0.00,VWS V14.01,2013-04-29 06:21:00,
2013-04-29 02:26:00,52.9,33.8,30.22,NW,319,0.0,4.0,48,0.00,,---,0.00,0.00,VWS V14.01,2013-04-29 06:26:00,
2013-04-29 02:30:00,52.8,34.2,30.22,WSW,243,0.0,4.0,49,0.00,,---,0.00,0.00,VWS V14.01,2013-04-29 06:30:00,
2013-04-29 02:31:00,52.8,34.2,30.22,WSW,243,0.0,0.0,49,0.00,,---,0.00,0.00,VWS V14.01,2013-04-29 06:31:00,
2013-04-29 02:36:00,52.7,34.1,30.22,West,267,0.0,1.0,49,0.00,,---,0.00,0.00,VWS V14.01,2013-04-29 06:36:00,
2013-04-29 02:41:00,52.7,34.6,30.22,West,267,0.0,3.0,50,0.00,,---,0.00,0.00,VWS V14.01,2013-04-29 06:41:00,
2013-04-29 02:46:00,52.6,35.0,30.22,West,267,0.0,3.0,51,0.00,,---,0.00,0.00,VWS V14.01,2013-04-29 06:46:00,
2013-04-29 02:51:00,52.6,35.5,30.22,SSW,194,0.0,3.0,52,0.00,,---,0.00,0.00,VWS V14.01,2013-04-29 06:51:00,
2013-04-29 02:56:00,52.4,35.8,30.22,SSW,206,0.0,3.0,53,0.00,,---,0.00,0.00,VWS V14.01,2013-04-29 06:56:00,
2013-04-29 03:00:00,52.4,36.3,30.22,West,263,3.0,3.0,54,0.00,,---,0.00,0.00,VWS V14.01,2013-04-29 07:00:00,
2013-04-29 03:01:00,52.3,36.2,30.22,West,263,2.0,3.0,54,0.00,,---,0.00,0.00,VWS V14.01,2013-04-29 07:01:00,
2013-04-29 03:06:00,52.3,36.2,30.22,WSW,255,3.0,3.0,54,0.00,,---,0.00,0.00,VWS V14.01,2013-04-29 07:06:00,
2013-04-29 03:11:00,52.3,36.6,30.22,NW,315,0.0,3.0,55,0.00,,---,0.00,0.00,VWS V14.01,2013-04-29 07:11:00,
2013-04-29 03:16:00,52.2,37.0,30.22,NW,315,0.0,3.0,56,0.00,,---,0.00,0.00,VWS V14.01,2013-04-29 07:16:00,
2013-04-29 03:21:00,52.1,37.3,30.22,NW,315,0.0,3.0,57,0.00,,---,0.00,0.00,VWS V14.01,2013-04-29 07:21:00,
2013-04-29 03:26:00,52.0,37.7,30.22,NW,315,0.0,3.0,58,0.00,,---,0.00,0.00,VWS V14.01,2013-04-29 07:26:00,
2013-04-29 03:30:00,51.9,38.0,30.22,NW,315,0.0,3.0,59,0.00,,---,0.00,0.00,VWS V14.01,2013-04-29 07:30:00,
2013-04-29 03:31:00,51.9,38.0,30.22,NW,315,2.0,2.0,59,0.00,,---,0.00,0.00,VWS V14.01,2013-04-29 07:31:00,
2013-04-29 03:36:00,51.8,38.8,30.22,NW,315,0.0,2.0,61,0.00,,---,0.00,0.00,VWS V14.01,2013-04-29 07:36:00,
2013-04-29 03:41:00,51.8,38.8,30.22,NW,315,0.0,2.0,61,0.00,,---,0.00,0.00,VWS V14.01,2013-04-29 07:41:00,
2013-04-29 03:46:00,51.7,38.7,30.22,NW,315,0.0,2.0,61,0.00,,---,0.00,0.00,VWS V14.01,2013-04-29 07:46:00,
2013-04-29 03:51:00,51.7,39.1,30.22,NW,315,0.0,2.0,62,0.00,,---,0.00,0.00,VWS V14.01,2013-04-29 07:51:00,
2013-04-29 03:56:00,51.7,39.1,30.22,NW,315,0.0,2.0,62,0.00,,---,0.00,0.00,VWS V14.01,2013-04-29 07:56:00,
2013-04-29 04:00:00,51.6,39.4,30.22,NW,315,0.0,2.0,63,0.00,,---,0.00,0.00,VWS V14.01,2013-04-29 08:00:00,
2013-04-29 04:01:00,51.6,39.4,30.22,NW,315,0.0,0.0,63,0.00,,---,0.00,0.00,VWS V14.01,2013-04-29 08:01:00,
2013-04-29 04:06:00,51.6,39.8,30.22,NW,315,0.0,0.0,64,0.00,,---,0.00,0.00,VWS V14.01,2013-04-29 08:06:00,
2013-04-29 04:11:00,51.5,39.7,30.22,NW,315,0.0,0.0,64,0.00,,---,0.00,0.00,VWS V14.01,2013-04-29 08:11:00,
2013-04-29 04:16:00,51.5,39.7,30.22,NW,315,0.0,0.0,64,0.00,,---,0.00,0.00,VWS V14.01,2013-04-29 08:16:00,
2013-04-29 04:21:00,51.5,40.1,30.22,NW,315,0.0,0.0,65,0.00,,---,0.00,0.00,VWS V14.01,2013-04-29 08:21:00,
2013-04-29 04:26:00,51.4,40.0,30.22,NW,315,0.0,0.0,65,0.00,,---,0.00,0.00,VWS V14.01,2013-04-29 08:26:00,
2013-04-29 04:30:00,51.4,40.0,30.22,NW,315,0.0,0.0,65,0.00,,---,0.00,0.00,VWS V14.01,2013-04-29 08:30:00,
2013-04-29 04:31:00,51.4,40.0,30.22,NW,315,0.0,0.0,65,0.00,,---,0.00,0.00,VWS V14.01,2013-04-29 08:31:00,
2013-04-29 04:36:00,51.3,40.3,30.22,NW,315,0.0,0.0,66,0.00,,---,0.00,0.00,VWS V14.01,2013-04-29 08:36:00,
2013-04-29 04:41:00,51.4,40.4,30.22,NW,315,0.0,0.0,66,0.00,,---,0.00,0.00,VWS V14.01,2013-04-29 08:41:00,
2013-04-29 04:46:00,51.4,40.8,30.22,NW,315,0.0,0.0,67,0.00,,---,0.00,0.00,VWS V14.01,2013-04-29 08:46:00,
2013-04-29 04:51:00,51.2,40.2,30.22,NW,315,0.0,0.0,66,0.00,,---,0.00,0.00,VWS V14.01,2013-04-29 08:51:00,
2013-04-29 04:56:00,50.8,40.2,30.22,NW,315,0.0,0.0,67,0.00,,---,0.00,0.00,VWS V14.01,2013-04-29 08:56:00,
2013-04-29 05:00:00,50.4,40.2,30.22,NW,315,0.0,0.0,68,0.00,,---,0.00,0.00,VWS V14.01,2013-04-29 09:00:00,
2013-04-29 05:01:00,50.4,40.2,30.22,NW,315,0.0,0.0,68,0.00,,---,0.00,0.00,VWS V14.01,2013-04-29 09:01:00,
2013-04-29 05:06:00,49.9,39.8,30.22,NW,315,0.0,0.0,68,0.00,,---,0.00,0.00,VWS V14.01,2013-04-29 09:06:00,
2013-04-29 05:11:00,49.7,39.6,30.22,NW,315,0.0,0.0,68,0.00,,---,0.00,0.00,VWS V14.01,2013-04-29 09:11:00,
2013-04-29 05:16:00,49.4,38.9,30.22,NW,315,0.0,0.0,67,0.00,,---,0.00,0.00,VWS V14.01,2013-04-29 09:16:00,
2013-04-29 05:21:00,49.1,39.4,30.22,NW,315,0.0,0.0,69,0.00,,---,0.00,0.00,VWS V14.01,2013-04-29 09:21:00,
2013-04-29 05:26:00,49.0,40.0,30.22,NW,315,0.0,0.0,71,0.00,,---,0.00,0.00,VWS V14.01,2013-04-29 09:26:00,
2013-04-29 05:30:00,49.0,40.7,30.22,NW,315,0.0,0.0,73,0.00,,---,0.00,0.00,VWS V14.01,2013-04-29 09:30:00,
2013-04-29 05:31:00,49.0,40.7,30.22,NW,315,0.0,0.0,73,0.00,,---,0.00,0.00,VWS V14.01,2013-04-29 09:31:00,
2013-04-29 05:36:00,49.1,40.8,30.23,NW,315,0.0,0.0,73,0.00,,---,0.00,0.00,VWS V14.01,2013-04-29 09:36:00,
2013-04-29 05:41:00,49.1,40.1,30.22,NW,315,0.0,0.0,71,0.00,,---,0.00,0.00,VWS V14.01,2013-04-29 09:41:00,
2013-04-29 05:46:00,48.9,40.3,30.23,NW,315,0.0,0.0,72,0.00,,---,0.00,0.00,VWS V14.01,2013-04-29 09:46:00,
2013-04-29 05:51:00,48.7,39.4,30.23,NW,315,0.0,0.0,70,0.00,,---,0.00,0.00,VWS V14.01,2013-04-29 09:51:00,
2013-04-29 05:56:00,48.7,39.4,30.23,NW,315,0.0,0.0,70,0.00,,---,0.00,0.00,VWS V14.01,2013-04-29 09:56:00,
2013-04-29 06:00:00,48.7,39.4,30.23,NW,315,0.0,0.0,70,0.00,,---,0.00,0.00,VWS V14.01,2013-04-29 10:00:00,
2013-04-29 06:01:00,48.7,39.4,30.23,NW,315,0.0,0.0,70,0.00,,---,0.00,0.00,VWS V14.01,2013-04-29 10:01:00,
2013-04-29 06:06:00,48.9,39.2,30.23,NW,324,0.0,2.0,69,0.00,,---,0.00,0.00,VWS V14.01,2013-04-29 10:06:00,
2013-04-29 06:11:00,49.0,40.0,30.23,NW,324,0.0,2.0,71,0.00,,---,0.00,0.00,VWS V14.01,2013-04-29 10:11:00,
2013-04-29 06:16:00,49.0,40.0,30.23,NW,324,0.0,2.0,71,0.00,,---,0.00,5.00,VWS V14.01,2013-04-29 10:16:00,
2013-04-29 06:21:00,49.0,40.0,30.23,NW,324,0.0,2.0,71,0.00,,---,0.00,7.00,VWS V14.01,2013-04-29 10:21:00,
2013-04-29 06:26:00,49.0,40.4,30.23,NW,324,0.0,2.0,72,0.00,,---,0.00,7.00,VWS V14.01,2013-04-29 10:26:00,
2013-04-29 06:30:00,49.0,40.4,30.23,NW,324,0.0,2.0,72,0.00,,---,0.00,9.00,VWS V14.01,2013-04-29 10:30:00,
2013-04-29 06:31:00,49.0,40.4,30.23,NW,324,0.0,2.0,72,0.00,,---,0.00,9.00,VWS V14.01,2013-04-29 10:31:00,
2013-04-29 06:36:00,48.9,40.3,30.23,NW,324,0.0,0.0,72,0.00,,---,0.00,11.00,VWS V14.01,2013-04-29 10:36:00,
2013-04-29 06:41:00,48.9,40.6,30.23,NW,324,0.0,0.0,73,0.00,,---,0.00,11.00,VWS V14.01,2013-04-29 10:41:00,
2013-04-29 06:46:00,49.0,40.4,30.23,NW,324,0.0,0.0,72,0.00,,---,0.00,14.00,VWS V14.01,2013-04-29 10:46:00,
2013-04-29 06:51:00,49.0,40.7,30.23,NW,324,0.0,0.0,73,0.00,,---,0.00,18.00,VWS V14.01,2013-04-29 10:51:00,
2013-04-29 06:56:00,49.1,40.8,30.23,SE,126,0.0,0.0,73,0.00,,---,0.00,19.00,VWS V14.01,2013-04-29 10:56:00,
2013-04-29 07:00:00,49.2,40.6,30.24,SE,126,0.0,0.0,72,0.00,,---,0.00,25.00,VWS V14.01,2013-04-29 11:00:00,
2013-04-29 07:01:00,49.3,40.7,30.23,SE,126,0.0,0.0,72,0.00,,---,0.00,25.00,VWS V14.01,2013-04-29 11:01:00,
2013-04-29 07:06:00,49.4,41.5,30.23,SE,126,0.0,0.0,74,0.00,,---,0.00,30.00,VWS V14.01,2013-04-29 11:06:00,
2013-04-29 07:11:00,49.5,41.6,30.24,SE,126,0.0,0.0,74,0.00,,---,0.00,40.00,VWS V14.01,2013-04-29 11:11:00,
2013-04-29 07:16:00,49.6,41.7,30.24,SE,126,0.0,0.0,74,0.00,,---,0.00,49.00,VWS V14.01,2013-04-29 11:16:00,
2013-04-29 07:21:00,49.8,41.9,30.24,ESE,111,0.0,0.0,74,0.00,,---,0.00,56.00,VWS V14.01,2013-04-29 11:21:00,
2013-04-29 07:26:00,50.1,42.2,30.24,ESE,111,0.0,0.0,74,0.00,,---,0.00,65.00,VWS V14.01,2013-04-29 11:26:00,
2013-04-29 07:30:00,50.3,42.3,30.24,ESE,111,0.0,0.0,74,0.00,,---,0.00,77.00,VWS V14.01,2013-04-29 11:30:00,
2013-04-29 07:31:00,50.3,42.3,30.24,ESE,111,0.0,0.0,74,0.00,,---,0.00,77.00,VWS V14.01,2013-04-29 11:31:00,
2013-04-29 07:36:00,50.5,42.5,30.24,NE,55,0.0,4.0,74,0.00,,---,0.00,95.00,VWS V14.01,2013-04-29 11:36:00,
2013-04-29 07:41:00,50.9,44.0,30.24,NE,55,0.0,4.0,77,0.00,,---,0.00,105.00,VWS V14.01,2013-04-29 11:41:00,
2013-04-29 07:46:00,51.3,44.0,30.24,NE,55,0.0,4.0,76,0.00,,---,0.00,113.00,VWS V14.01,2013-04-29 11:46:00,
2013-04-29 07:51:00,51.8,44.5,30.23,NE,55,0.0,4.0,76,0.00,,---,0.00,114.00,VWS V14.01,2013-04-29 11:51:00,
2013-04-29 07:56:00,52.3,45.3,30.23,NE,55,0.0,4.0,77,0.00,,---,0.00,123.00,VWS V14.01,2013-04-29 11:56:00,
2013-04-29 08:00:00,52.7,45.4,30.23,NE,55,0.0,4.0,76,0.00,,---,0.00,167.00,VWS V14.01,2013-04-29 12:00:00,
2013-04-29 08:01:00,52.7,45.7,30.23,NE,55,0.0,0.0,77,0.00,,---,0.00,167.00,VWS V14.01,2013-04-29 12:01:00,
2013-04-29 08:06:00,53.3,45.6,30.23,NE,55,0.0,3.0,75,0.00,,---,0.00,193.00,VWS V14.01,2013-04-29 12:06:00,
2013-04-29 08:11:00,53.6,45.5,30.23,NE,55,0.0,3.0,74,0.00,,---,0.00,171.00,VWS V14.01,2013-04-29 12:11:00,
2013-04-29 08:17:00,54.1,46.4,30.24,ENE,75,0.0,0.0,75,0.00,,---,0.00,118.00,VWS V14.01,2013-04-29 12:17:00,
2013-04-29 08:24:00,54.5,46.4,30.23,SE,131,4.0,4.0,74,0.00,,---,0.00,141.00,VWS V14.01,2013-04-29 12:24:00,
2013-04-29 08:28:00,54.8,46.7,30.23,WNW,297,0.0,4.0,74,0.00,,---,0.00,160.00,VWS V14.01,2013-04-29 12:28:00,
2013-04-29 08:30:00,54.9,46.8,30.23,West,276,2.0,4.0,74,0.00,,---,0.00,167.00,VWS V14.01,2013-04-29 12:30:00,
2013-04-29 08:33:00,55.0,46.5,30.23,SSW,210,1.0,4.0,73,0.00,,---,0.00,172.00,VWS V14.01,2013-04-29 12:33:00,
2013-04-29 08:38:00,55.1,47.0,30.23,West,259,0.0,4.0,74,0.00,,---,0.00,169.00,VWS V14.01,2013-04-29 12:38:00,
2013-04-29 08:43:00,55.3,47.2,30.23,SSW,192,3.0,5.0,74,0.00,,---,0.00,176.00,VWS V14.01,2013-04-29 12:43:00,
2013-04-29 08:48:00,55.3,46.8,30.23,SW,229,0.0,5.0,73,0.00,,---,0.00,232.00,VWS V14.01,2013-04-29 12:48:00,
2013-04-29 08:53:00,55.5,46.6,30.23,West,259,0.0,5.0,72,0.00,,---,0.00,287.00,VWS V14.01,2013-04-29 12:53:00,
2013-04-29 08:58:00,55.7,46.8,30.23,WSW,238,0.0,5.0,72,0.00,,---,0.00,225.00,VWS V14.01,2013-04-29 12:58:00,
2013-04-29 09:00:00,55.8,46.9,30.23,SSW,194,1.0,5.0,72,0.00,,---,0.00,185.00,VWS V14.01,2013-04-29 13:00:00,
2013-04-29 09:03:00,55.7,46.8,30.23,SSE,163,0.0,5.0,72,0.00,,---,0.00,137.00,VWS V14.01,2013-04-29 13:03:00,
2013-04-29 09:08:00,55.6,46.7,30.23,WSW,246,0.0,6.0,72,0.00,,---,0.00,151.00,VWS V14.01,2013-04-29 13:08:00,
2013-04-29 09:13:00,55.6,46.7,30.23,SSW,208,2.0,6.0,72,0.00,,---,0.00,218.00,VWS V14.01,2013-04-29 13:13:00,
2013-04-29 09:18:00,55.7,46.8,30.23,SSW,196,0.0,6.0,72,0.00,,---,0.00,216.00,VWS V14.01,2013-04-29 13:18:00,
2013-04-29 09:23:00,55.8,46.5,30.23,SSW,213,0.0,6.0,71,0.00,,---,0.00,216.00,VWS V14.01,2013-04-29 13:23:00,
2013-04-29 09:28:00,55.9,46.3,30.23,SW,215,4.0,6.0,70,0.00,,---,0.00,234.00,VWS V14.01,2013-04-29 13:28:00,
2013-04-29 09:30:00,55.9,46.3,30.23,SW,215,2.0,6.0,70,0.00,,---,0.00,251.00,VWS V14.01,2013-04-29 13:30:00,
2013-04-29 09:33:00,55.9,46.3,30.23,WSW,242,0.0,4.0,70,0.00,,---,0.00,271.00,VWS V14.01,2013-04-29 13:33:00,
2013-04-29 09:38:00,56.1,46.8,30.23,WSW,256,1.0,4.0,71,0.00,,---,0.00,357.00,VWS V14.01,2013-04-29 13:38:00,
2013-04-29 09:43:00,56.4,46.8,30.23,WSW,257,0.0,7.0,70,0.00,,---,0.00,334.00,VWS V14.01,2013-04-29 13:43:00,
2013-04-29 09:48:00,56.8,47.1,30.23,NNW,332,1.0,7.0,70,0.00,,---,0.00,459.00,VWS V14.01,2013-04-29 13:48:00,
2013-04-29 09:53:00,57.3,46.8,30.23,WSW,248,2.0,7.0,68,0.00,,---,0.00,438.00,VWS V14.01,2013-04-29 13:53:00,
2013-04-29 09:58:00,57.5,46.2,30.23,SSW,209,0.0,7.0,66,0.00,,---,0.00,485.00,VWS V14.01,2013-04-29 13:58:00,
2013-04-29 10:00:00,57.4,46.2,30.23,WSW,248,2.0,7.0,66,0.00,,---,0.00,504.00,VWS V14.01,2013-04-29 14:00:00,
2013-04-29 10:03:00,57.4,46.9,30.23,SW,215,2.0,4.0,68,0.00,,---,0.00,403.00,VWS V14.01,2013-04-29 14:03:00,
2013-04-29 10:08:00,57.6,47.1,30.23,West,280,0.0,6.0,68,0.00,,---,0.00,339.00,VWS V14.01,2013-04-29 14:08:00,
2013-04-29 10:13:00,57.7,46.8,30.23,WSW,250,0.0,7.0,67,0.00,,---,0.00,287.00,VWS V14.01,2013-04-29 14:13:00,
2013-04-29 10:18:00,57.3,46.5,30.23,West,262,6.0,7.0,67,0.00,,---,0.00,243.00,VWS V14.01,2013-04-29 14:18:00,
2013-04-29 10:23:00,56.8,46.0,30.23,WNW,293,0.0,10.0,67,0.00,,---,0.00,193.00,VWS V14.01,2013-04-29 14:23:00,
2013-04-29 10:28:00,56.7,46.3,30.23,West,271,3.0,10.0,68,0.00,,---,0.00,195.00,VWS V14.01,2013-04-29 14:28:00,
2013-04-29 10:30:00,56.7,46.3,30.23,WNW,282,3.0,10.0,68,0.00,,---,0.00,199.00,VWS V14.01,2013-04-29 14:30:00,
2013-04-29 10:33:00,56.7,46.3,30.23,ESE,111,0.0,7.0,68,0.00,,---,0.00,202.00,VWS V14.01,2013-04-29 14:33:00,
2013-04-29 10:38:00,56.7,46.7,30.23,West,259,1.0,7.0,69,0.00,,---,0.00,213.00,VWS V14.01,2013-04-29 14:38:00,
2013-04-29 10:43:00,56.8,46.8,30.23,West,259,0.0,7.0,69,0.00,,---,0.00,221.00,VWS V14.01,2013-04-29 14:43:00,
2013-04-29 10:48:00,56.8,46.4,30.23,SW,235,2.0,7.0,68,0.00,,---,0.00,200.00,VWS V14.01,2013-04-29 14:48:00,
2013-04-29 10:53:00,56.7,46.3,30.23,SW,228,0.0,7.0,68,0.00,,---,0.00,171.00,VWS V14.01,2013-04-29 14:53:00,
2013-04-29 10:58:00,56.7,45.9,30.23,West,261,0.0,7.0,67,0.00,,---,0.00,158.00,VWS V14.01,2013-04-29 14:58:00,
2013-04-29 11:00:00,56.6,45.8,30.23,WNW,294,0.0,7.0,67,0.00,,---,0.00,146.00,VWS V14.01,2013-04-29 15:00:00,
2013-04-29 11:03:00,56.6,45.8,30.23,WNW,294,0.0,2.0,67,0.00,,---,0.00,141.00,VWS V14.01,2013-04-29 15:03:00,
2013-04-29 11:08:00,56.6,45.8,30.23,West,271,3.0,4.0,67,0.00,,---,0.00,151.00,VWS V14.01,2013-04-29 15:08:00,
2013-04-29 11:13:00,56.4,46.0,30.23,West,269,0.0,5.0,68,0.00,,---,0.00,156.00,VWS V14.01,2013-04-29 15:13:00,
2013-04-29 11:18:00,56.4,46.0,30.23,West,267,3.0,5.0,68,0.00,,---,0.00,151.00,VWS V14.01,2013-04-29 15:18:00,
2013-04-29 11:23:00,56.4,45.6,30.23,NW,306,4.0,5.0,67,0.00,,---,0.00,167.00,VWS V14.01,2013-04-29 15:23:00,
2013-04-29 11:28:00,56.5,46.1,30.23,West,260,0.0,7.0,68,0.00,,---,0.00,181.00,VWS V14.01,2013-04-29 15:28:00,
2013-04-29 11:30:00,56.5,46.1,30.23,NE,52,0.0,7.0,68,0.00,,---,0.00,183.00,VWS V14.01,2013-04-29 15:30:00,
2013-04-29 11:33:00,56.6,46.6,30.23,NE,52,0.0,0.0,69,0.00,,---,0.00,192.00,VWS V14.01,2013-04-29 15:33:00,
2013-04-29 11:38:00,56.9,46.5,30.23,WSW,251,0.0,3.0,68,0.00,,---,0.00,230.00,VWS V14.01,2013-04-29 15:38:00,
2013-04-29 11:43:00,57.1,46.3,30.23,West,265,1.0,4.0,67,0.00,,---,0.00,237.00,VWS V14.01,2013-04-29 15:43:00,
2013-04-29 11:48:00,57.2,46.4,30.23,West,277,0.0,7.0,67,0.00,,---,0.00,230.00,VWS V14.01,2013-04-29 15:48:00,
2013-04-29 11:53:00,57.3,46.0,30.23,WSW,252,1.0,7.0,66,0.00,,---,0.00,230.00,VWS V14.01,2013-04-29 15:53:00,
2013-04-29 11:58:00,57.3,46.0,30.23,West,276,1.0,7.0,66,0.00,,---,0.00,211.00,VWS V14.01,2013-04-29 15:58:00,
2013-04-29 12:00:00,57.3,46.5,30.23,West,276,0.0,7.0,67,0.00,,---,0.00,209.00,VWS V14.01,2013-04-29 16:00:00,
2013-04-29 12:03:00,57.3,46.0,30.23,West,266,0.0,5.0,66,0.00,,---,0.00,202.00,VWS V14.01,2013-04-29 16:03:00,
2013-04-29 12:08:00,57.3,46.0,30.23,WSW,244,0.0,5.0,66,0.00,,---,0.00,188.00,VWS V14.01,2013-04-29 16:08:00,
2013-04-29 12:13:00,57.3,46.0,30.23,WNW,290,0.0,6.0,66,0.00,,---,0.00,192.00,VWS V14.01,2013-04-29 16:13:00,
2013-04-29 12:18:00,57.4,46.5,30.23,West,267,3.0,6.0,67,0.00,,---,0.00,209.00,VWS V14.01,2013-04-29 16:18:00,
2013-04-29 12:23:00,57.4,46.2,30.22,West,281,4.0,6.0,66,0.00,,---,0.00,234.00,VWS V14.01,2013-04-29 16:23:00,
2013-04-29 12:28:00,57.5,46.2,30.22,ESE,119,0.0,6.0,66,0.00,,---,0.00,229.00,VWS V14.01,2013-04-29 16:28:00,
2013-04-29 12:30:00,57.6,46.7,30.22,ESE,119,1.0,6.0,67,0.00,,---,0.00,223.00,VWS V14.01,2013-04-29 16:30:00,
2013-04-29 12:33:00,57.8,46.9,30.22,ESE,119,1.0,1.0,67,0.00,,---,0.00,221.00,VWS V14.01,2013-04-29 16:33:00,
2013-04-29 12:38:00,57.9,46.2,30.22,West,267,0.0,3.0,65,0.00,,---,0.00,230.00,VWS V14.01,2013-04-29 16:38:00,
2013-04-29 12:43:00,58.1,46.8,30.22,SE,137,0.0,5.0,66,0.00,,---,0.00,202.00,VWS V14.01,2013-04-29 16:43:00,
2013-04-29 12:48:00,58.1,46.4,30.22,SE,137,1.0,5.0,65,0.00,,---,0.00,199.00,VWS V14.01,2013-04-29 16:48:00,
2013-04-29 12:53:00,58.2,46.1,30.22,SW,232,0.0,5.0,64,0.00,,---,0.00,209.00,VWS V14.01,2013-04-29 16:53:00,
2013-04-29 12:58:00,58.3,45.8,30.21,SSE,161,0.0,5.0,63,0.00,,---,0.00,241.00,VWS V14.01,2013-04-29 16:58:00,
2013-04-29 13:00:00,58.3,45.3,30.21,SSE,161,0.0,5.0,62,0.00,,---,0.00,253.00,VWS V14.01,2013-04-29 17:00:00,
2013-04-29 13:03:00,58.5,46.4,30.21,SSE,165,4.0,4.0,64,0.00,,---,0.00,232.00,VWS V14.01,2013-04-29 17:03:00,
2013-04-29 13:08:00,58.6,45.2,30.21,SE,136,0.0,4.0,61,0.00,,---,0.00,220.00,VWS V14.01,2013-04-29 17:08:00,
2013-04-29 13:13:00,58.8,45.8,30.21,SE,142,0.0,5.0,62,0.00,,---,0.00,209.00,VWS V14.01,2013-04-29 17:13:00,
2013-04-29 13:18:00,59.0,46.0,30.22,SW,232,0.0,5.0,62,0.00,,---,0.00,193.00,VWS V14.01,2013-04-29 17:18:00,
2013-04-29 13:23:00,58.8,44.5,30.22,South,174,0.0,5.0,59,0.00,,---,0.00,183.00,VWS V14.01,2013-04-29 17:23:00,
2013-04-29 13:28:00,58.7,44.9,30.22,SE,140,0.0,5.0,60,0.00,,---,0.00,188.00,VWS V14.01,2013-04-29 17:28:00,
2013-04-29 13:30:00,58.7,44.9,30.22,West,269,1.0,5.0,60,0.00,,---,0.00,190.00,VWS V14.01,2013-04-29 17:30:00,
2013-04-29 13:33:00,58.7,45.3,30.22,SE,138,1.0,3.0,61,0.00,,---,0.00,179.00,VWS V14.01,2013-04-29 17:33:00,
2013-04-29 13:38:00,58.6,45.2,30.22,ESE,119,0.0,5.0,61,0.00,,---,0.00,172.00,VWS V14.01,2013-04-29 17:38:00,
2013-04-29 13:43:00,58.6,45.2,30.22,SSW,204,0.0,5.0,61,0.00,,---,0.00,156.00,VWS V14.01,2013-04-29 17:43:00,
2013-04-29 13:48:00,58.4,44.1,30.22,WSW,253,0.0,5.0,59,0.00,,---,0.00,178.00,VWS V14.01,2013-04-29 17:48:00,
2013-04-29 13:53:00,58.3,45.3,30.22,SW,223,0.0,5.0,62,0.00,,---,0.00,190.00,VWS V14.01,2013-04-29 17:53:00,
2013-04-29 13:58:00,58.2,45.3,30.22,WSW,246,0.0,5.0,62,0.00,,---,0.00,195.00,VWS V14.01,2013-04-29 17:58:00,
2013-04-29 14:00:00,58.3,44.9,30.22,WNW,282,0.0,5.0,61,0.00,,---,0.00,188.00,VWS V14.01,2013-04-29 18:00:00,
2013-04-29 14:03:00,58.3,44.9,30.22,North,5,2.0,5.0,61,0.00,,---,0.00,160.00,VWS V14.01,2013-04-29 18:03:00,
2013-04-29 14:08:00,58.3,44.0,30.22,South,173,0.0,5.0,59,0.00,,---,0.00,149.00,VWS V14.01,2013-04-29 18:08:00,
2013-04-29 14:13:00,58.3,44.9,30.22,SW,234,3.0,5.0,61,0.00,,---,0.00,135.00,VWS V14.01,2013-04-29 18:13:00,
2013-04-29 14:18:00,58.2,44.0,30.22,WSW,238,2.0,5.0,59,0.00,,---,0.00,116.00,VWS V14.01,2013-04-29 18:18:00,
2013-04-29 14:23:00,58.1,44.7,30.22,SW,228,0.0,5.0,61,0.00,,---,0.00,130.00,VWS V14.01,2013-04-29 18:23:00,
2013-04-29 14:28:00,58.1,44.7,30.22,West,261,2.0,5.0,61,0.00,,---,0.00,146.00,VWS V14.01,2013-04-29 18:28:00,
2013-04-29 14:30:00,58.1,44.7,30.22,West,276,0.0,5.0,61,0.00,,---,0.00,156.00,VWS V14.01,2013-04-29 18:30:00,
2013-04-29 14:33:00,58.0,44.2,30.22,WSW,254,0.0,6.0,60,0.00,,---,0.00,155.00,VWS V14.01,2013-04-29 18:33:00,
2013-04-29 14:38:00,58.0,44.6,30.22,WSW,240,0.0,6.0,61,0.00,,---,0.00,123.00,VWS V14.01,2013-04-29 18:38:00,
2013-04-29 14:43:00,57.9,44.5,30.22,West,263,0.0,6.0,61,0.00,,---,0.00,91.00,VWS V14.01,2013-04-29 18:43:00,
2013-04-29 14:48:00,57.7,44.4,30.22,West,279,0.0,6.0,61,0.00,,---,0.00,81.00,VWS V14.01,2013-04-29 18:48:00,
2013-04-29 14:53:00,57.5,44.2,30.22,SE,142,3.0,6.0,61,0.00,,---,0.00,79.00,VWS V14.01,2013-04-29 18:53:00,
2013-04-29 14:58:00,57.4,44.5,30.22,SE,144,0.0,6.0,62,0.00,,---,0.00,77.00,VWS V14.01,2013-04-29 18:58:00,
2013-04-29 15:00:00,57.3,44.0,30.22,NNE,12,0.0,6.0,61,0.00,,---,0.00,81.00,VWS V14.01,2013-04-29 19:00:00,
2013-04-29 15:03:00,57.3,44.0,30.22,WSW,248,1.0,3.0,61,0.00,,---,0.00,79.00,VWS V14.01,2013-04-29 19:03:00,
2013-04-29 15:08:00,57.2,44.3,30.22,West,259,0.0,3.0,62,0.00,,---,0.00,83.00,VWS V14.01,2013-04-29 19:08:00,
2013-04-29 15:13:00,57.2,44.3,30.22,SW,215,0.0,3.0,62,0.00,,---,0.00,102.00,VWS V14.01,2013-04-29 19:13:00,
2013-04-29 15:18:00,57.2,45.2,30.21,SW,215,0.0,3.0,64,0.00,,---,0.00,100.00,VWS V14.01,2013-04-29 19:18:00,
2013-04-29 15:23:00,57.2,44.7,30.21,East,101,0.0,3.0,63,0.00,,---,0.00,118.00,VWS V14.01,2013-04-29 19:23:00,
2013-04-29 15:28:00,57.3,44.8,30.21,SSE,147,2.0,3.0,63,0.00,,---,0.00,132.00,VWS V14.01,2013-04-29 19:28:00,
2013-04-29 15:30:00,57.3,44.8,30.21,SSE,147,0.0,4.0,63,0.00,,---,0.00,149.00,VWS V14.01,2013-04-29 19:30:00,
2013-04-29 15:33:00,57.3,44.8,30.21,SE,136,0.0,5.0,63,0.00,,---,0.00,165.00,VWS V14.01,2013-04-29 19:33:00,
2013-04-29 15:38:00,57.5,44.6,30.21,SE,130,1.0,5.0,62,0.00,,---,0.00,169.00,VWS V14.01,2013-04-29 19:38:00,
2013-04-29 15:43:00,57.6,45.1,30.21,ESE,121,0.0,5.0,63,0.00,,---,0.00,200.00,VWS V14.01,2013-04-29 19:43:00,
2013-04-29 15:48:00,57.8,45.3,30.20,ESE,118,0.0,5.0,63,0.00,,---,0.00,216.00,VWS V14.01,2013-04-29 19:48:00,
2013-04-29 15:53:00,58.1,43.9,30.20,SSE,154,0.0,5.0,59,0.00,,---,0.00,195.00,VWS V14.01,2013-04-29 19:53:00,
2013-04-29 15:58:00,58.2,43.1,30.20,SSE,150,0.0,7.0,57,0.00,,---,0.00,158.00,VWS V14.01,2013-04-29 19:58:00,
2013-04-29 16:00:00,58.2,43.1,30.20,SE,131,1.0,7.0,57,0.00,,---,0.00,146.00,VWS V14.01,2013-04-29 20:00:00,
2013-04-29 16:03:00,58.1,43.9,30.20,ESE,107,0.0,4.0,59,0.00,,---,0.00,149.00,VWS V14.01,2013-04-29 20:03:00,
2013-04-29 16:08:00,58.0,43.3,30.20,SSE,163,1.0,4.0,58,0.00,,---,0.00,165.00,VWS V14.01,2013-04-29 20:08:00,
2013-04-29 16:13:00,58.0,43.3,30.20,ESE,113,1.0,5.0,58,0.00,,---,0.00,149.00,VWS V14.01,2013-04-29 20:13:00,
2013-04-29 16:18:00,58.0,43.8,30.20,SE,126,4.0,5.0,59,0.00,,---,0.00,128.00,VWS V14.01,2013-04-29 20:18:00,
2013-04-29 16:23:00,57.7,43.0,30.20,WSW,246,0.0,5.0,58,0.00,,---,0.00,111.00,VWS V14.01,2013-04-29 20:23:00,
2013-04-29 16:28:00,57.3,42.2,30.20,SE,144,2.0,6.0,57,0.00,,---,0.00,105.00,VWS V14.01,2013-04-29 20:28:00,
2013-04-29 16:30:00,57.2,42.1,30.20,East,80,0.0,6.0,57,0.00,,---,0.00,109.00,VWS V14.01,2013-04-29 20:30:00,
2013-04-29 16:33:00,57.1,42.5,30.20,SE,145,0.0,5.0,58,0.00,,---,0.00,114.00,VWS V14.01,2013-04-29 20:33:00,
2013-04-29 16:38:00,57.1,44.2,30.20,SE,145,0.0,5.0,62,0.00,,---,0.00,114.00,VWS V14.01,2013-04-29 20:38:00,
2013-04-29 16:43:00,57.0,44.1,30.20,SSE,154,0.0,5.0,62,0.00,,---,0.00,95.00,VWS V14.01,2013-04-29 20:43:00,
2013-04-29 16:48:00,57.1,44.2,30.20,SE,126,0.0,5.0,62,0.00,,---,0.00,91.00,VWS V14.01,2013-04-29 20:48:00,
2013-04-29 16:53:00,56.9,43.6,30.20,SSE,149,0.0,5.0,61,0.00,,---,0.00,86.00,VWS V14.01,2013-04-29 20:53:00,
2013-04-29 16:58:00,56.8,43.5,30.20,SE,131,0.0,5.0,61,0.00,,---,0.00,83.00,VWS V14.01,2013-04-29 20:58:00,
2013-04-29 17:00:00,56.8,43.1,30.20,SE,131,0.0,5.0,60,0.00,,---,0.00,90.00,VWS V14.01,2013-04-29 21:00:00,
2013-04-29 17:03:00,56.8,43.1,30.20,SE,131,0.0,0.0,60,0.00,,---,0.00,98.00,VWS V14.01,2013-04-29 21:03:00,
2013-04-29 17:08:00,56.7,44.3,30.21,SSW,198,0.0,4.0,63,0.00,,---,0.00,97.00,VWS V14.01,2013-04-29 21:08:00,
2013-04-29 17:13:00,56.6,44.2,30.21,West,277,0.0,4.0,63,0.00,,---,0.00,90.00,VWS V14.01,2013-04-29 21:13:00,
2013-04-29 17:18:00,56.2,45.4,30.21,West,277,0.0,4.0,67,0.00,,---,0.00,86.00,VWS V14.01,2013-04-29 21:18:00,
2013-04-29 17:23:00,55.8,45.8,30.21,West,277,0.0,4.0,69,0.00,,---,0.00,83.00,VWS V14.01,2013-04-29 21:23:00,
2013-04-29 17:28:00,55.4,45.4,30.21,West,277,0.0,4.0,69,0.00,,---,0.00,72.00,VWS V14.01,2013-04-29 21:28:00,
2013-04-29 17:30:00,55.3,45.7,30.21,West,277,0.0,4.0,70,0.00,,---,0.00,70.00,VWS V14.01,2013-04-29 21:30:00,
2013-04-29 17:33:00,55.1,45.5,30.21,West,277,0.0,0.0,70,0.00,,---,0.00,62.00,VWS V14.01,2013-04-29 21:33:00,
2013-04-29 17:38:00,55.0,45.8,30.21,West,277,0.0,0.0,71,0.00,,---,0.00,54.00,VWS V14.01,2013-04-29 21:38:00,
2013-04-29 17:43:00,54.8,46.0,30.21,West,277,0.0,0.0,72,0.01,,---,0.01,51.00,VWS V14.01,2013-04-29 21:43:00,
2013-04-29 17:48:00,54.6,45.8,30.21,West,277,0.0,0.0,72,0.01,,---,0.01,47.00,VWS V14.01,2013-04-29 21:48:00,
2013-04-29 17:53:00,54.4,45.6,30.21,West,277,0.0,0.0,72,0.01,,---,0.01,44.00,VWS V14.01,2013-04-29 21:53:00,
2013-04-29 17:58:00,54.2,45.8,30.21,West,277,0.0,0.0,73,0.01,,---,0.01,46.00,VWS V14.01,2013-04-29 21:58:00,
2013-04-29 18:00:00,54.1,46.0,30.21,West,277,0.0,0.0,74,0.01,,---,0.01,42.00,VWS V14.01,2013-04-29 22:00:00,
2013-04-29 18:03:00,54.0,46.6,30.21,West,277,0.0,0.0,76,0.01,,---,0.01,39.00,VWS V14.01,2013-04-29 22:03:00,
2013-04-29 18:08:00,53.8,47.1,30.21,West,277,0.0,0.0,78,0.01,,---,0.01,35.00,VWS V14.01,2013-04-29 22:08:00,
2013-04-29 18:13:00,53.7,47.3,30.21,West,277,0.0,0.0,79,0.01,,---,0.01,37.00,VWS V14.01,2013-04-29 22:13:00,
2013-04-29 18:18:00,53.3,47.3,30.21,West,277,0.0,0.0,80,0.01,,---,0.01,39.00,VWS V14.01,2013-04-29 22:18:00,
2013-04-29 18:23:00,53.1,47.8,30.21,West,277,0.0,0.0,82,0.01,,---,0.01,33.00,VWS V14.01,2013-04-29 22:23:00,
2013-04-29 18:28:00,53.0,47.3,30.21,West,277,0.0,0.0,81,0.01,,---,0.01,32.00,VWS V14.01,2013-04-29 22:28:00,
2013-04-29 18:30:00,53.0,48.0,30.21,West,277,0.0,0.0,83,0.01,,---,0.01,28.00,VWS V14.01,2013-04-29 22:30:00,
2013-04-29 18:33:00,53.0,48.0,30.21,West,277,0.0,0.0,83,0.01,,---,0.01,23.00,VWS V14.01,2013-04-29 22:33:00,
2013-04-29 18:38:00,52.9,47.9,30.21,West,277,0.0,0.0,83,0.01,,---,0.01,21.00,VWS V14.01,2013-04-29 22:38:00,
2013-04-29 18:43:00,52.9,47.6,30.21,West,277,0.0,0.0,82,0.01,,---,0.01,25.00,VWS V14.01,2013-04-29 22:43:00,
2013-04-29 18:48:00,52.8,47.1,30.21,West,277,0.0,0.0,81,0.01,,---,0.01,26.00,VWS V14.01,2013-04-29 22:48:00,
2013-04-29 18:53:00,52.9,47.2,30.21,West,277,0.0,0.0,81,0.01,,---,0.01,19.00,VWS V14.01,2013-04-29 22:53:00,
2013-04-29 18:58:00,52.9,44.8,30.21,West,277,0.0,0.0,74,0.01,,---,0.01,12.00,VWS V14.01,2013-04-29 22:58:00,
2013-04-29 19:00:00,52.9,44.5,30.21,ESE,112,2.0,2.0,73,0.01,,---,0.01,11.00,VWS V14.01,2013-04-29 23:00:00,
2013-04-29 19:03:00,53.1,44.3,30.21,ESE,116,5.0,5.0,72,0.00,,---,0.01,9.00,VWS V14.01,2013-04-29 23:03:00,
2013-04-29 19:08:00,53.3,44.2,30.21,ESE,121,0.0,5.0,71,0.00,,---,0.01,7.00,VWS V14.01,2013-04-29 23:08:00,
2013-04-29 19:13:00,53.4,43.5,30.21,ESE,121,0.0,5.0,69,0.00,,---,0.01,5.00,VWS V14.01,2013-04-29 23:13:00,
2013-04-29 19:18:00,53.5,42.8,30.21,SE,140,0.0,5.0,67,0.00,,---,0.01,7.00,VWS V14.01,2013-04-29 23:18:00,
2013-04-29 19:23:00,53.7,43.0,30.22,SSE,148,2.0,5.0,67,0.00,,---,0.01,7.00,VWS V14.01,2013-04-29 23:23:00,
2013-04-29 19:28:00,53.7,43.0,30.22,SSE,148,0.0,5.0,67,0.00,,---,0.01,5.00,VWS V14.01,2013-04-29 23:28:00,
2013-04-29 19:30:00,53.8,43.1,30.22,ESE,110,2.0,5.0,67,0.00,,---,0.01,5.00,VWS V14.01,2013-04-29 23:30:00,
2013-04-29 19:33:00,53.8,43.1,30.22,ESE,110,0.0,2.0,67,0.00,,---,0.01,0.00,VWS V14.01,2013-04-29 23:33:00,
2013-04-29 19:38:00,53.9,42.8,30.22,ESE,110,0.0,3.0,66,0.00,,---,0.01,0.00,VWS V14.01,2013-04-29 23:38:00,
2013-04-29 19:43:00,53.9,42.8,30.22,ESE,110,0.0,3.0,66,0.00,,---,0.01,0.00,VWS V14.01,2013-04-29 23:43:00,
2013-04-29 19:48:00,53.8,43.1,30.22,ESE,110,0.0,3.0,67,0.00,,---,0.01,0.00,VWS V14.01,2013-04-29 23:48:00,
2013-04-29 19:53:00,53.8,42.7,30.22,ESE,110,0.0,3.0,66,0.00,,---,0.01,0.00,VWS V14.01,2013-04-29 23:53:00,
2013-04-29 19:58:00,53.8,43.1,30.22,SSE,160,0.0,3.0,67,0.00,,---,0.01,0.00,VWS V14.01,2013-04-29 23:58:00,
2013-04-29 20:00:00,53.8,42.7,30.22,SSE,160,0.0,3.0,66,0.00,,---,0.01,0.00,VWS V14.01,2013-04-30 00:00:00,
2013-04-29 20:03:00,53.8,43.1,30.22,SSE,160,0.0,1.0,67,0.00,,---,0.01,0.00,VWS V14.01,2013-04-30 00:03:00,
2013-04-29 20:08:00,53.8,43.1,30.22,SE,130,0.0,3.0,67,0.00,,---,0.01,0.00,VWS V14.01,2013-04-30 00:08:00,
2013-04-29 20:13:00,53.8,42.7,30.22,SE,130,0.0,3.0,66,0.00,,---,0.01,0.00,VWS V14.01,2013-04-30 00:13:00,
2013-04-29 20:18:00,53.8,42.7,30.23,ESE,120,0.0,3.0,66,0.00,,---,0.01,0.00,VWS V14.01,2013-04-30 00:18:00,
2013-04-29 20:23:00,53.8,42.7,30.23,ESE,120,0.0,3.0,66,0.00,,---,0.01,0.00,VWS V14.01,2013-04-30 00:23:00,
2013-04-29 20:28:00,53.8,42.7,30.23,SE,143,0.0,3.0,66,0.00,,---,0.01,0.00,VWS V14.01,2013-04-30 00:28:00,
2013-04-29 20:30:00,53.8,42.3,30.23,East,101,0.0,5.0,65,0.00,,---,0.01,0.00,VWS V14.01,2013-04-30 00:30:00,
2013-04-29 20:33:00,53.7,42.6,30.23,SE,142,0.0,0.0,66,0.00,,---,0.01,0.00,VWS V14.01,2013-04-30 00:33:00,
2013-04-29 20:38:00,53.8,42.3,30.24,SE,142,0.0,1.0,65,0.00,,---,0.01,0.00,VWS V14.01,2013-04-30 00:38:00,
2013-04-29 20:43:00,53.8,42.7,30.24,SE,142,0.0,2.0,66,0.00,,---,0.01,0.00,VWS V14.01,2013-04-30 00:43:00,
2013-04-29 20:48:00,53.7,42.6,30.24,SE,142,0.0,2.0,66,0.00,,---,0.01,0.00,VWS V14.01,2013-04-30 00:48:00,
2013-04-29 20:53:00,53.7,41.8,30.24,ESE,123,0.0,2.0,64,0.00,,---,0.01,0.00,VWS V14.01,2013-04-30 00:53:00,
2013-04-29 20:58:00,53.8,42.7,30.24,ESE,123,0.0,2.0,66,0.00,,---,0.01,0.00,VWS V14.01,2013-04-30 00:58:00,
2013-04-29 21:00:00,53.7,41.8,30.24,ESE,123,0.0,2.0,64,0.00,,---,0.01,0.00,VWS V14.01,2013-04-30 01:00:00,
2013-04-29 21:03:00,53.8,41.9,30.24,SSE,166,0.0,2.0,64,0.00,,---,0.01,0.00,VWS V14.01,2013-04-30 01:03:00,
2013-04-29 21:08:00,53.8,42.3,30.24,SSE,166,0.0,2.0,65,0.00,,---,0.01,0.00,VWS V14.01,2013-04-30 01:08:00,
2013-04-29 21:13:00,53.8,42.3,30.25,ENE,72,0.0,2.0,65,0.00,,---,0.01,0.00,VWS V14.01,2013-04-30 01:13:00,
2013-04-29 21:18:00,53.7,42.2,30.25,ENE,72,0.0,2.0,65,0.00,,---,0.01,0.00,VWS V14.01,2013-04-30 01:18:00,
2013-04-29 21:23:00,53.6,42.1,30.25,ENE,72,0.0,2.0,65,0.00,,---,0.01,0.00,VWS V14.01,2013-04-30 01:23:00,
2013-04-29 21:28:00,53.6,42.5,30.25,ENE,72,0.0,2.0,66,0.00,,---,0.01,0.00,VWS V14.01,2013-04-30 01:28:00,
2013-04-29 21:30:00,53.5,42.4,30.25,ENE,72,0.0,2.0,66,0.00,,---,0.01,0.00,VWS V14.01,2013-04-30 01:30:00,
2013-04-29 21:33:00,53.5,42.0,30.25,ENE,72,0.0,0.0,65,0.00,,---,0.01,0.00,VWS V14.01,2013-04-30 01:33:00,
2013-04-29 21:38:00,53.4,42.7,30.25,ENE,72,0.0,0.0,67,0.00,,---,0.01,0.00,VWS V14.01,2013-04-30 01:38:00,
2013-04-29 21:43:00,53.3,42.6,30.25,ENE,72,0.0,0.0,67,0.00,,---,0.01,0.00,VWS V14.01,2013-04-30 01:43:00,
2013-04-29 21:48:00,53.2,42.5,30.25,ENE,72,0.0,0.0,67,0.00,,---,0.01,0.00,VWS V14.01,2013-04-30 01:48:00,
2013-04-29 21:53:00,53.1,43.2,30.25,ENE,72,0.0,0.0,69,0.00,,---,0.01,0.00,VWS V14.01,2013-04-30 01:53:00,
2013-04-29 21:58:00,53.0,43.1,30.25,ENE,72,0.0,0.0,69,0.00,,---,0.01,0.00,VWS V14.01,2013-04-30 01:58:00,
2013-04-29 22:00:00,53.0,42.7,30.25,ENE,72,0.0,0.0,68,0.00,,---,0.01,0.00,VWS V14.01,2013-04-30 02:00:00,
2013-04-29 22:03:00,52.9,42.6,30.25,ENE,72,0.0,0.0,68,0.00,,---,0.01,0.00,VWS V14.01,2013-04-30 02:03:00,
2013-04-29 22:08:00,52.8,43.3,30.25,ENE,72,0.0,0.0,70,0.00,,---,0.01,0.00,VWS V14.01,2013-04-30 02:08:00,
2013-04-29 22:13:00,52.7,42.1,30.25,ENE,72,0.0,0.0,67,0.00,,---,0.01,0.00,VWS V14.01,2013-04-30 02:13:00,
2013-04-29 22:18:00,52.7,42.1,30.25,ENE,72,0.0,0.0,67,0.00,,---,0.01,0.00,VWS V14.01,2013-04-30 02:18:00,
2013-04-29 22:23:00,52.7,40.9,30.25,SSE,151,0.0,4.0,64,0.00,,---,0.01,0.00,VWS V14.01,2013-04-30 02:23:00,
2013-04-29 22:28:00,52.8,41.0,30.25,SSE,151,0.0,4.0,64,0.00,,---,0.01,0.00,VWS V14.01,2013-04-30 02:28:00,
2013-04-29 22:30:00,52.8,41.0,30.25,SSE,151,0.0,4.0,64,0.00,,---,0.01,0.00,VWS V14.01,2013-04-30 02:30:00,
2013-04-29 22:33:00,52.8,41.0,30.25,SSE,151,0.0,0.0,64,0.00,,---,0.01,0.00,VWS V14.01,2013-04-30 02:33:00,
2013-04-29 22:38:00,52.7,40.9,30.25,SSE,151,0.0,0.0,64,0.00,,---,0.01,0.00,VWS V14.01,2013-04-30 02:38:00,
2013-04-29 22:43:00,52.7,40.9,30.25,SSE,151,0.0,0.0,64,0.00,,---,0.01,0.00,VWS V14.01,2013-04-30 02:43:00,
2013-04-29 22:48:00,52.6,43.5,30.25,SSE,151,0.0,0.0,71,0.00,,---,0.01,0.00,VWS V14.01,2013-04-30 02:48:00,
2013-04-29 22:53:00,52.3,41.3,30.25,SSE,151,0.0,0.0,66,0.00,,---,0.01,0.00,VWS V14.01,2013-04-30 02:53:00,
2013-04-29 22:58:00,52.2,41.6,30.25,SSE,151,0.0,0.0,67,0.00,,---,0.01,0.00,VWS V14.01,2013-04-30 02:58:00,
2013-04-29 23:00:00,52.2,41.6,30.25,SSE,151,0.0,0.0,67,0.00,,---,0.01,0.00,VWS V14.01,2013-04-30 03:00:00,
2013-04-29 23:03:00,52.1,41.5,30.25,SSE,151,0.0,0.0,67,0.00,,---,0.01,0.00,VWS V14.01,2013-04-30 03:03:00,
2013-04-29 23:08:00,52.0,41.4,30.25,SSE,151,0.0,0.0,67,0.00,,---,0.01,0.00,VWS V14.01,2013-04-30 03:08:00,
2013-04-29 23:13:00,51.9,41.7,30.25,SSE,151,0.0,0.0,68,0.00,,---,0.01,0.00,VWS V14.01,2013-04-30 03:13:00,
2013-04-29 23:18:00,51.9,41.7,30.25,SSE,151,0.0,0.0,68,0.00,,---,0.01,0.00,VWS V14.01,2013-04-30 03:18:00,
2013-04-29 23:23:00,51.8,41.6,30.25,SSE,151,0.0,0.0,68,0.00,,---,0.01,0.00,VWS V14.01,2013-04-30 03:23:00,
2013-04-29 23:28:00,51.7,42.2,30.25,SSE,151,0.0,0.0,70,0.00,,---,0.01,0.00,VWS V14.01,2013-04-30 03:28:00,
2013-04-29 23:30:00,51.7,43.3,30.25,SSE,151,0.0,0.0,73,0.00,,---,0.01,0.00,VWS V14.01,2013-04-30 03:30:00,
2013-04-29 23:33:00,51.5,42.0,30.25,SSE,151,0.0,0.0,70,0.00,,---,0.01,0.00,VWS V14.01,2013-04-30 03:33:00,
2013-04-29 23:38:00,51.4,42.7,30.25,SSE,151,0.0,0.0,72,0.00,,---,0.01,0.00,VWS V14.01,2013-04-30 03:38:00,
2013-04-29 23:43:00,51.3,43.0,30.25,SSE,151,0.0,0.0,73,0.00,,---,0.01,0.00,VWS V14.01,2013-04-30 03:43:00,
2013-04-29 23:48:00,51.2,42.5,30.25,SSE,151,0.0,0.0,72,0.00,,---,0.01,0.00,VWS V14.01,2013-04-30 03:48:00,
2013-04-29 23:53:00,51.1,43.1,30.25,SSE,151,0.0,0.0,74,0.00,,---,0.01,0.00,VWS V14.01,2013-04-30 03:53:00,
2013-04-29 23:58:00,51.0,41.9,30.25,SSE,151,0.0,0.0,71,0.00,,---,0.01,0.00,VWS V14.01,2013-04-30 03:58:00,